User: anonymous   Login
Location: Oshawa
(43.9000°N, 78.8670°W)
Time: 02:53:29
(UTC-04:00)
Language:

Envisat - Orbit

View from above orbital plane
View from above orbital plane
View from above satellite
View from above satellite

Ground track
Ground track

The orbit data is extracted from the following two-line orbital elements,

1 27386U 02009A   17176.59749973 -.00000010 +00000-0 +10356-4 0  9993
2 27386 098.2303 221.5251 0001107 089.5545 270.5774 14.37897703802287
Epoch (UTC): 25 June 2017 14:20:23
Eccentricity: 0.0001107
inclination: 98.2303°
perigee height: 764 km
apogee height: 766 km
right ascension of ascending node: 221.5251°
argument of perigee: 89.5545°
revolutions per day: 14.37897703
mean anomaly at epoch: 270.5774°
orbit number at epoch: 80228

The dashed part of the orbit path shows where the satellite is in the earth's shadow,  

DLR